| time (UTC) | temp F | wind direction | speed MPH | gust MPH | rain 1hr in | rain 24hr in | rain mn in | humidity % | barometer mb |
| 20260509201516 | 86 | 17 | 0.0 | 5.0 | 0.00 | 0.10 | 0.10 | 58 | 1010.3 |
| 20260509201011 | 88 | 18 | 0.0 | 5.0 | 0.00 | 0.10 | 0.10 | 59 | 1010.5 |
| 20260509200506 | 87 | 18 | 2.0 | 5.0 | 0.00 | 0.10 | 0.10 | 56 | 1010.6 |
| 20260509200022 | 86 | 20 | 1.0 | 3.0 | 0.00 | 0.10 | 0.10 | 56 | 1010.6 |
| 20260509195513 | 85 | 20 | 1.0 | 3.0 | 0.00 | 0.10 | 0.10 | 60 | 1010.6 |
| 20260509195006 | 85 | 20 | 1.0 | 5.0 | 0.00 | 0.10 | 0.10 | 61 | 1010.6 |
| 20260509194524 | 86 | 1 | 1.0 | 5.0 | 0.00 | 0.10 | 0.10 | 60 | 1010.6 |
| 20260509194008 | 86 | 17 | 1.0 | 5.0 | 0.00 | 0.10 | 0.10 | 64 | 1010.5 |
| 20260509193508 | 85 | 17 | 3.0 | 7.0 | 0.00 | 0.10 | 0.10 | 64 | 1010.5 |
| 20260509193012 | 85 | 1 | 0.0 | 7.0 | 0.00 | 0.10 | 0.10 | 61 | 1010.6 |
| 20260509192507 | 86 | 10 | 2.0 | 7.0 | 0.00 | 0.10 | 0.10 | 69 | 1010.7 |
| 20260509192007 | 85 | 11 | 2.0 | 5.0 | 0.00 | 0.10 | 0.10 | 71 | 1010.7 |
| 20260509191518 | 84 | 1 | 1.0 | 7.0 | 0.00 | 0.10 | 0.10 | 70 | 1010.7 |
| 20260509191007 | 84 | 3 | 2.0 | 8.0 | 0.00 | 0.10 | 0.10 | 70 | 1010.9 |
| 20260509190507 | 84 | 8 | 1.0 | 8.0 | 0.00 | 0.10 | 0.10 | 75 | 1010.9 |
| 20260509190022 | 83 | 11 | 3.0 | 8.0 | 0.00 | 0.10 | 0.10 | 71 | 1011.0 |
| 20260509185507 | 82 | 33 | 1.0 | 6.0 | 0.00 | 0.10 | 0.10 | 80 | 1011.2 |
| 20260509185008 | 82 | 22 | 2.0 | 6.0 | 0.00 | 0.10 | 0.10 | 76 | 1011.2 |
| 20260509184540 | 81 | 11 | 2.0 | 5.0 | 0.00 | 0.10 | 0.10 | 79 | 1011.2 |
| 20260509184011 | 80 | 2 | 1.0 | 5.0 | 0.00 | 0.10 | 0.10 | 78 | 1011.3 |
| 20260509183508 | 80 | 27 | 1.0 | 5.0 | 0.00 | 0.10 | 0.10 | 81 | 1011.4 |
| 20260509183026 | 80 | 89 | 2.0 | 4.0 | 0.00 | 0.10 | 0.10 | 85 | 1011.4 |
| 20260509182510 | 78 | 100 | 0.0 | 0.0 | 0.00 | 0.10 | 0.10 | 85 | 1011.6 |
| 20260509182010 | 78 | 100 | 0.0 | 0.0 | 0.00 | 0.10 | 0.10 | 86 | 1011.7 |
| 20260509181514 | 78 | 100 | 0.0 | 2.0 | 0.00 | 0.10 | 0.10 | 88 | 1011.6 |
| 20260509181011 | 77 | 100 | 0.0 | 2.0 | 0.00 | 0.10 | 0.10 | 87 | 1011.7 |
| 20260509180514 | 76 | 100 | 0.0 | 2.0 | 0.00 | 0.10 | 0.10 | 87 | 1011.8 |
| 20260509180015 | 77 | 100 | 0.0 | 4.0 | 0.01 | 0.10 | 0.10 | 88 | 1011.9 |
| 20260509175507 | 77 | 100 | 0.0 | 4.0 | 0.06 | 0.10 | 0.10 | 86 | 1011.9 |
| 20260509175007 | 78 | 100 | 2.0 | 4.0 | 0.10 | 0.10 | 0.10 | 85 | 1011.8 |
| 20260509174528 | 78 | 141 | 0.0 | 2.0 | 0.10 | 0.10 | 0.10 | 86 | 1011.7 |
| 20260509174008 | 79 | 141 | 0.0 | 2.0 | 0.10 | 0.10 | 0.10 | 85 | 1011.8 |
| 20260509173513 | 79 | 141 | 0.0 | 2.0 | 0.10 | 0.10 | 0.10 | 89 | 1011.9 |
| 20260509173026 | 77 | 141 | 0.0 | 0.0 | 0.10 | 0.10 | 0.10 | 88 | 1011.9 |
| 20260509172510 | 77 | 141 | 0.0 | 0.0 | 0.10 | 0.10 | 0.10 | 90 | 1011.8 |
| 20260509172009 | 76 | 141 | 0.0 | 0.0 | 0.10 | 0.10 | 0.10 | 90 | 1012.0 |
| 20260509171525 | 76 | 141 | 0.0 | 1.0 | 0.10 | 0.10 | 0.10 | 89 | 1012.2 |
| 20260509171006 | 75 | 141 | 0.0 | 1.0 | 0.10 | 0.10 | 0.10 | 88 | 1012.3 |
| 20260509170510 | 76 | 141 | 0.0 | 2.0 | 0.10 | 0.10 | 0.10 | 89 | 1012.4 |
| 20260509170045 | 76 | 141 | 0.0 | 2.0 | 0.09 | 0.09 | 0.09 | 87 | 1012.3 |
| 20260509165505 | 77 | 141 | 0.0 | 3.0 | 0.04 | 0.04 | 0.04 | 83 | 1012.4 |
| 20260509165009 | 78 | 141 | 0.0 | 5.0 | 0.00 | 0.00 | 0.00 | 80 | 1012.2 |
| 20260509164518 | 78 | 141 | 1.0 | 11.0 | 0.00 | 0.00 | 0.00 | 78 | 1012.3 |
| 20260509164006 | 80 | 141 | 2.0 | 11.0 | 0.00 | 0.00 | 0.00 | 75 | 1012.1 |
| 20260509163512 | 82 | 192 | 2.0 | 8.0 | 0.00 | 0.00 | 0.00 | 74 | 1011.9 |
| 20260509163026 | 82 | 243 | 3.0 | 7.0 | 0.00 | 0.00 | 0.00 | 77 | 1012.1 |
| 20260509162511 | 81 | 162 | 3.0 | 7.0 | 0.00 | 0.00 | 0.00 | 79 | 1012.2 |
| 20260509162007 | 80 | 193 | 3.0 | 8.0 | 0.00 | 0.00 | 0.00 | 78 | 1012.2 |
| 20260509161523 | 81 | 105 | 3.0 | 8.0 | 0.00 | 0.00 | 0.00 | 78 | 1012.1 |
| 20260509161011 | 81 | 143 | 2.0 | 5.0 | 0.00 | 0.00 | 0.00 | 76 | 1012.0 |
| 20260509160511 | 82 | 172 | 1.0 | 3.0 | 0.00 | 0.00 | 0.00 | 73 | 1011.9 |
| 20260509160028 | 82 | 172 | 0.0 | 3.0 | 0.00 | 0.00 | 0.00 | 72 | 1011.9 |
| 20260509155507 | 82 | 174 | 1.0 | 3.0 | 0.00 | 0.00 | 0.00 | 75 | 1011.8 |
| 20260509155009 | 81 | 174 | 1.0 | 5.0 | 0.00 | 0.00 | 0.00 | 75 | 1011.8 |
| 20260509154529 | 82 | 174 | 2.0 | 5.0 | 0.00 | 0.00 | 0.00 | 74 | 1011.8 |
| 20260509154011 | 81 | 174 | 0.0 | 2.0 | 0.00 | 0.00 | 0.00 | 74 | 1011.7 |
| 20260509153502 | 83 | 174 | 0.0 | 4.0 | 0.00 | 0.00 | 0.00 | 72 | 1011.7 |
| 20260509153018 | 83 | 174 | 1.0 | 5.0 | 0.00 | 0.00 | 0.00 | 72 | 1011.6 |
| 20260509152502 | 82 | 201 | 1.0 | 5.0 | 0.00 | 0.00 | 0.00 | 74 | 1011.5 |
| 20260509152003 | 82 | 189 | 1.0 | 6.0 | 0.00 | 0.00 | 0.00 | 76 | 1011.4 |
| 20260509151504 | 82 | 181 | 1.0 | 6.0 | 0.00 | 0.00 | 0.00 | 75 | 1011.2 |
| 20260509151003 | 82 | 168 | 0.0 | 7.0 | 0.00 | 0.00 | 0.00 | 76 | 1011.2 |
| 20260509150506 | 81 | 168 | 2.0 | 8.0 | 0.00 | 0.00 | 0.00 | 76 | 1011.3 |
| 20260509150009 | 80 | 206 | 2.0 | 8.0 | 0.00 | 0.00 | 0.00 | 76 | 1011.3 |
| 20260509145505 | 80 | 239 | 3.0 | 7.0 | 0.00 | 0.00 | 0.00 | 77 | 1011.1 |
| 20260509145006 | 80 | 160 | 1.0 | 8.0 | 0.00 | 0.00 | 0.00 | 78 | 1011.1 |
| 20260509144517 | 79 | 187 | 4.0 | 10.0 | 0.00 | 0.00 | 0.00 | 78 | 1011.0 |
| 20260509144004 | 79 | 214 | 3.0 | 10.0 | 0.00 | 0.00 | 0.00 | 79 | 1010.9 |
| 20260509143506 | 79 | 167 | 2.0 | 10.0 | 0.00 | 0.00 | 0.00 | 81 | 1010.9 |
| 20260509143020 | 78 | 183 | 3.0 | 8.0 | 0.00 | 0.00 | 0.00 | 81 | 1010.9 |
| 20260509142504 | 78 | 188 | 2.0 | 8.0 | 0.00 | 0.00 | 0.00 | 82 | 1010.8 |
| 20260509142008 | 78 | 219 | 2.0 | 7.0 | 0.00 | 0.00 | 0.00 | 83 | 1010.7 |
| 20260509141536 | 77 | 215 | 2.0 | 6.0 | 0.00 | 0.00 | 0.00 | 84 | 1010.7 |
| 20260509141003 | 77 | 182 | 3.0 | 6.0 | 0.00 | 0.00 | 0.00 | 84 | 1010.7 |
| 20260509140506 | 76 | 207 | 2.0 | 6.0 | 0.00 | 0.00 | 0.00 | 87 | 1010.7 |
| 20260509140003 | 76 | 174 | 2.0 | 6.0 | 0.00 | 0.00 | 0.00 | 88 | 1010.7 |
| 20260509135506 | 75 | 188 | 1.0 | 4.0 | 0.00 | 0.00 | 0.00 | 89 | 1010.7 |
| 20260509135005 | 74 | 201 | 1.0 | 6.0 | 0.00 | 0.00 | 0.00 | 90 | 1010.9 |
| 20260509134524 | 74 | 206 | 2.0 | 6.0 | 0.00 | 0.00 | 0.00 | 91 | 1010.9 |
| 20260509134003 | 73 | 112 | 2.0 | 5.0 | 0.00 | 0.00 | 0.00 | 92 | 1010.6 |
| 20260509133506 | 73 | 251 | 1.0 | 5.0 | 0.00 | 0.00 | 0.00 | 92 | 1010.7 |
| 20260509133015 | 73 | 255 | 2.0 | 5.0 | 0.00 | 0.00 | 0.00 | 92 | 1010.5 |
| 20260509132510 | 72 | 184 | 1.0 | 5.0 | 0.00 | 0.00 | 0.00 | 93 | 1010.2 |
| 20260509132010 | 72 | 191 | 2.0 | 6.0 | 0.00 | 0.00 | 0.00 | 93 | 1010.6 |
| 20260509131526 | 72 | 165 | 2.0 | 6.0 | 0.00 | 0.00 | 0.00 | 93 | 1010.6 |
| 20260509131007 | 71 | 203 | 0.0 | 5.0 | 0.00 | 0.00 | 0.00 | 94 | 1010.6 |
| 20260509130506 | 71 | 203 | 1.0 | 5.0 | 0.00 | 0.00 | 0.00 | 94 | 1010.4 |
| 20260509130026 | 71 | 199 | 2.0 | 5.0 | 0.00 | 0.00 | 0.00 | 94 | 1010.4 |
| 20260509125505 | 71 | 194 | 2.0 | 5.0 | 0.00 | 0.00 | 0.00 | 94 | 1010.4 |
| 20260509125003 | 70 | 205 | 1.0 | 5.0 | 0.00 | 0.00 | 0.00 | 94 | 1010.3 |
| 20260509124511 | 70 | 112 | 1.0 | 4.0 | 0.00 | 0.00 | 0.00 | 94 | 1010.4 |
| 20260509124007 | 70 | 100 | 1.0 | 3.0 | 0.00 | 0.00 | 0.00 | 94 | 1010.7 |
| 20260509123506 | 70 | 63 | 1.0 | 3.0 | 0.00 | 0.00 | 0.00 | 94 | 1010.9 |
| 20260509123014 | 70 | 48 | 0.0 | 0.0 | 0.00 | 0.00 | 0.00 | 94 | 1010.7 |
| 20260509122506 | 70 | 48 | 0.0 | 0.0 | 0.00 | 0.00 | 0.00 | 94 | 1010.8 |
| 20260509122007 | 70 | 48 | 0.0 | 0.0 | 0.00 | 0.00 | 0.00 | 94 | 1010.9 |
| 20260509121523 | 70 | 48 | 0.0 | 0.0 | 0.00 | 0.00 | 0.00 | 94 | 1010.9 |
| 20260509121008 | 70 | 48 | 0.0 | 1.0 | 0.00 | 0.00 | 0.00 | 94 | 1011.0 |
| 20260509120507 | 70 | 48 | 0.0 | 1.0 | 0.00 | 0.00 | 0.00 | 94 | 1011.0 |
| 20260509120024 | 70 | 48 | 0.0 | 0.0 | 0.00 | 0.00 | 0.00 | 93 | 1011.1 |
| 20260509115508 | 70 | 48 | 0.0 | 1.0 | 0.00 | 0.00 | 0.00 | 94 | 1011.1 |
| 20260509115008 | 70 | 48 | 0.0 | 2.0 | 0.00 | 0.00 | 0.00 | 94 | 1011.2 |
| 20260509114533 | 70 | 48 | 0.0 | 2.0 | 0.00 | 0.00 | 0.00 | 94 | 1011.4 |
| 20260509114008 | 70 | 48 | 0.0 | 2.0 | 0.00 | 0.00 | 0.00 | 94 | 1011.7 |
| 20260509113507 | 70 | 48 | 0.0 | 0.0 | 0.00 | 0.00 | 0.00 | 94 | 1011.8 |
| 20260509113009 | 70 | 48 | 0.0 | 0.0 | 0.00 | 0.00 | 0.00 | 93 | 1011.8 |
| 20260509112505 | 70 | 48 | 0.0 | 0.0 | 0.00 | 0.00 | 0.00 | 93 | 1011.8 |
| 20260509112013 | 70 | 48 | 0.0 | 0.0 | 0.00 | 0.00 | 0.00 | 93 | 1011.9 |
| 20260509111513 | 70 | 48 | 0.0 | 1.0 | 0.00 | 0.00 | 0.00 | 93 | 1012.0 |
| 20260509111006 | 70 | 48 | 0.0 | 1.0 | 0.00 | 0.00 | 0.00 | 93 | 1012.1 |
| 20260509110507 | 70 | 48 | 0.0 | 1.0 | 0.00 | 0.00 | 0.00 | 93 | 1012.1 |
| 20260509110006 | 70 | 48 | 0.0 | 1.0 | 0.00 | 0.00 | 0.00 | 94 | 1012.2 |
| 20260509105510 | 70 | 48 | 0.0 | 1.0 | 0.00 | 0.00 | 0.00 | 94 | 1012.3 |
| 20260509105008 | 70 | 48 | 0.0 | 2.0 | 0.00 | 0.00 | 0.00 | 93 | 1012.5 |
| 20260509104513 | 70 | 48 | 0.0 | 2.0 | 0.00 | 0.00 | 0.00 | 93 | 1012.4 |
| 20260509104009 | 70 | 48 | 0.0 | 3.0 | 0.00 | 0.00 | 0.00 | 93 | 1012.5 |
| 20260509103510 | 70 | 48 | 0.0 | 4.0 | 0.00 | 0.00 | 0.00 | 93 | 1012.7 |
| 20260509103012 | 70 | 48 | 2.0 | 4.0 | 0.00 | 0.00 | 0.00 | 93 | 1012.5 |
| 20260509102510 | 71 | 48 | 0.0 | 2.0 | 0.00 | 0.00 | 0.00 | 93 | 1012.4 |
| 20260509102007 | 71 | 48 | 0.0 | 2.0 | 0.00 | 0.00 | 0.00 | 93 | 1012.1 |
| 20260509101516 | 71 | 48 | 1.0 | 3.0 | 0.00 | 0.00 | 0.00 | 93 | 1012.1 |
| 20260509101006 | 71 | 48 | 0.0 | 3.0 | 0.00 | 0.00 | 0.00 | 93 | 1012.2 |
| 20260509100505 | 71 | 48 | 1.0 | 3.0 | 0.00 | 0.00 | 0.00 | 93 | 1012.1 |
| 20260509100014 | 71 | 48 | 0.0 | 3.0 | 0.00 | 0.00 | 0.00 | 93 | 1012.1 |
| 20260509095509 | 71 | 48 | 0.0 | 3.0 | 0.00 | 0.00 | 0.00 | 93 | 1011.9 |
| 20260509095007 | 71 | 48 | 1.0 | 3.0 | 0.00 | 0.00 | 0.00 | 93 | 1011.7 |
| 20260509094518 | 71 | 48 | 1.0 | 4.0 | 0.00 | 0.00 | 0.00 | 93 | 1011.5 |
| 20260509094008 | 71 | 48 | 2.0 | 4.0 | 0.00 | 0.00 | 0.00 | 93 | 1011.5 |
| 20260509093508 | 71 | 54 | 1.0 | 4.0 | 0.00 | 0.00 | 0.00 | 93 | 1011.5 |
| 20260509093016 | 71 | 89 | 0.0 | 0.0 | 0.00 | 0.00 | 0.00 | 93 | 1011.5 |
| 20260509092508 | 71 | 89 | 0.0 | 0.0 | 0.00 | 0.00 | 0.00 | 93 | 1011.0 |
| 20260509092010 | 71 | 89 | 0.0 | 0.0 | 0.00 | 0.00 | 0.00 | 93 | 1010.9 |
| 20260509091523 | 71 | 89 | 0.0 | 0.0 | 0.00 | 0.00 | 0.00 | 93 | 1010.7 |
| 20260509091013 | 71 | 89 | 0.0 | 0.0 | 0.00 | 0.00 | 0.00 | 92 | 1010.5 |
| 20260509090507 | 71 | 89 | 0.0 | 0.0 | 0.00 | 0.00 | 0.00 | 92 | 1010.5 |
| 20260509090016 | 71 | 89 | 0.0 | 0.0 | 0.00 | 0.00 | 0.00 | 92 | 1010.6 |
| 20260509085506 | 71 | 89 | 0.0 | 3.0 | 0.00 | 0.00 | 0.00 | 92 | 1010.7 |
| 20260509085006 | 71 | 89 | 0.0 | 3.0 | 0.00 | 0.00 | 0.00 | 92 | 1010.7 |
| 20260509084524 | 71 | 89 | 0.0 | 0.0 | 0.00 | 0.00 | 0.00 | 92 | 1010.8 |
| 20260509084009 | 71 | 89 | 0.0 | 0.0 | 0.00 | 0.00 | 0.00 | 92 | 1010.9 |
| 20260509083507 | 71 | 89 | 0.0 | 0.0 | 0.00 | 0.00 | 0.00 | 92 | 1011.1 |
| 20260509083018 | 71 | 89 | 0.0 | 0.0 | 0.00 | 0.00 | 0.00 | 92 | 1011.3 |
| 20260509082509 | 71 | 89 | 0.0 | 0.0 | 0.00 | 0.00 | 0.00 | 92 | 1011.1 |
| 20260509082004 | 71 | 89 | 0.0 | 0.0 | 0.00 | 0.00 | 0.00 | 92 | 1011.1 |
| 20260509081508 | 71 | 89 | 0.0 | 0.0 | 0.00 | 0.00 | 0.00 | 92 | 1011.1 |
| 20260509081005 | 71 | 89 | 0.0 | 0.0 | 0.00 | 0.00 | 0.00 | 91 | 1011.1 |
| 20260509080504 | 71 | 89 | 0.0 | 0.0 | 0.00 | 0.00 | 0.00 | 91 | 1011.0 |
| 20260509080005 | 71 | 89 | 0.0 | 0.0 | 0.00 | 0.00 | 0.00 | 91 | 1011.1 |
| 20260509075504 | 72 | 89 | 0.0 | 0.0 | 0.00 | 0.00 | 0.00 | 91 | 1011.1 |
| 20260509075007 | 72 | 89 | 0.0 | 0.0 | 0.00 | 0.00 | 0.00 | 91 | 1011.3 |
| 20260509074504 | 72 | 89 | 0.0 | 0.0 | 0.00 | 0.00 | 0.00 | 91 | 1011.4 |
| 20260509074005 | 72 | 89 | 0.0 | 0.0 | 0.00 | 0.00 | 0.00 | 91 | 1011.8 |
| 20260509073505 | 72 | 89 | 0.0 | 0.0 | 0.00 | 0.00 | 0.00 | 91 | 1011.7 |
| 20260509073010 | 72 | 89 | 0.0 | 0.0 | 0.00 | 0.00 | 0.00 | 91 | 1011.4 |
| 20260509072504 | 72 | 89 | 0.0 | 0.0 | 0.00 | 0.00 | 0.00 | 91 | 1011.5 |
| 20260509072003 | 72 | 89 | 0.0 | 1.0 | 0.00 | 0.00 | 0.00 | 91 | 1011.8 |
| 20260509071505 | 72 | 89 | 0.0 | 1.0 | 0.00 | 0.00 | 0.00 | 91 | 1011.8 |
| 20260509071002 | 72 | 89 | 0.0 | 1.0 | 0.00 | 0.00 | 0.00 | 90 | 1011.8 |
| 20260509070508 | 72 | 89 | 0.0 | 2.0 | 0.00 | 0.00 | 0.00 | 90 | 1011.6 |
| 20260509070006 | 72 | 89 | 0.0 | 2.0 | 0.00 | 0.00 | 0.00 | 90 | 1011.5 |
| 20260509065508 | 72 | 89 | 0.0 | 1.0 | 0.00 | 0.00 | 0.00 | 90 | 1011.3 |
| 20260509065007 | 72 | 89 | 0.0 | 2.0 | 0.00 | 0.00 | 0.00 | 90 | 1011.4 |
| 20260509064505 | 72 | 89 | 0.0 | 2.0 | 0.00 | 0.00 | 0.00 | 90 | 1011.6 |
| 20260509064008 | 72 | 89 | 0.0 | 1.0 | 0.00 | 0.00 | 0.00 | 90 | 1011.5 |
| 20260509063506 | 72 | 89 | 0.0 | 2.0 | 0.00 | 0.00 | 0.00 | 90 | 1011.5 |
| 20260509063006 | 72 | 86 | 0.0 | 2.0 | 0.00 | 0.00 | 0.00 | 90 | 1011.5 |
| 20260509062508 | 72 | 85 | 0.0 | 1.0 | 0.00 | 0.00 | 0.00 | 90 | 1011.6 |
| 20260509062007 | 72 | 85 | 0.0 | 1.0 | 0.00 | 0.00 | 0.00 | 90 | 1011.7 |
| 20260509061502 | 72 | 85 | 0.0 | 2.0 | 0.00 | 0.00 | 0.00 | 90 | 1011.6 |
| 20260509061003 | 72 | 119 | 0.0 | 2.0 | 0.00 | 0.00 | 0.00 | 90 | 1011.4 |
| 20260509060503 | 72 | 119 | 0.0 | 2.0 | 0.00 | 0.00 | 0.00 | 90 | 1011.5 |
| 20260509060007 | 72 | 119 | 0.0 | 2.0 | 0.00 | 0.00 | 0.00 | 90 | 1011.5 |
| 20260509055504 | 72 | 119 | 0.0 | 1.0 | 0.00 | 0.00 | 0.00 | 89 | 1011.6 |
| 20260509055004 | 72 | 119 | 0.0 | 3.0 | 0.00 | 0.00 | 0.00 | 89 | 1011.5 |
| 20260509054510 | 72 | 119 | 0.0 | 3.0 | 0.00 | 0.00 | 0.00 | 89 | 1011.2 |
| 20260509054007 | 72 | 119 | 0.0 | 3.0 | 0.00 | 0.00 | 0.00 | 89 | 1010.9 |
| 20260509053507 | 72 | 119 | 1.0 | 3.0 | 0.00 | 0.00 | 0.00 | 89 | 1010.7 |
| 20260509053009 | 72 | 119 | 0.0 | 3.0 | 0.00 | 0.00 | 0.00 | 89 | 1010.4 |
| 20260509052507 | 72 | 119 | 1.0 | 3.0 | 0.00 | 0.00 | 0.00 | 89 | 1010.2 |
| 20260509052006 | 72 | 119 | 0.0 | 3.0 | 0.00 | 0.00 | 0.00 | 89 | 1010.2 |
| 20260509051509 | 72 | 120 | 0.0 | 2.0 | 0.00 | 0.00 | 0.00 | 89 | 1010.2 |
| 20260509051007 | 72 | 120 | 0.0 | 2.0 | 0.00 | 0.00 | 0.00 | 89 | 1010.2 |
| 20260509050502 | 72 | 120 | 0.0 | 2.0 | 0.00 | 0.00 | 0.00 | 89 | 1010.0 |
| 20260509050007 | 72 | 120 | 0.0 | 2.0 | 0.00 | 0.00 | 0.00 | 89 | 1010.0 |
| 20260509045503 | 72 | 120 | 0.0 | 2.0 | 0.00 | 0.00 | 0.00 | 88 | 1010.0 |
| 20260509045003 | 72 | 120 | 0.0 | 0.0 | 0.00 | 0.00 | 0.00 | 88 | 1010.0 |
| 20260509044511 | 72 | 120 | 0.0 | 0.0 | 0.00 | 0.00 | 0.00 | 88 | 1010.0 |
| 20260509044007 | 72 | 120 | 0.0 | 0.0 | 0.00 | 0.00 | 0.00 | 88 | 1010.2 |
| 20260509043503 | 72 | 120 | 0.0 | 3.0 | 0.00 | 0.00 | 0.00 | 88 | 1010.4 |
| 20260509043012 | 72 | 120 | 0.0 | 3.0 | 0.00 | 0.00 | 0.00 | 88 | 1010.6 |
| 20260509042509 | 72 | 120 | 0.0 | 3.0 | 0.00 | 0.00 | 0.00 | 88 | 1010.6 |
| 20260509042009 | 72 | 120 | 1.0 | 3.0 | 0.00 | 0.00 | 0.00 | 88 | 1010.6 |
| 20260509041514 | 72 | 120 | 0.0 | 3.0 | 0.00 | 0.00 | 0.00 | 88 | 1010.6 |
| 20260509041010 | 72 | 120 | 0.0 | 3.0 | 0.00 | 0.00 | 0.00 | 87 | 1010.6 |
| 20260509040505 | 72 | 120 | 1.0 | 3.0 | 0.00 | 0.00 | 0.00 | 88 | 1010.6 |
| 20260509040014 | 72 | 119 | 0.0 | 5.0 | 0.00 | 0.00 | 0.00 | 88 | 1010.6 |
| 20260509035509 | 72 | 119 | 1.0 | 5.0 | 0.00 | 0.00 | 0.00 | 88 | 1010.6 |
| 20260509035003 | 72 | 104 | 1.0 | 3.0 | 0.00 | 0.00 | 0.00 | 88 | 1010.6 |
| 20260509034506 | 72 | 101 | 0.0 | 4.0 | 0.00 | 0.00 | 0.00 | 88 | 1010.7 |
| 20260509034007 | 72 | 101 | 0.0 | 4.0 | 0.00 | 0.00 | 0.00 | 88 | 1010.6 |
| 20260509033505 | 72 | 101 | 0.0 | 3.0 | 0.00 | 0.00 | 0.00 | 88 | 1010.5 |
| 20260509033011 | 72 | 101 | 0.0 | 4.0 | 0.00 | 0.00 | 0.00 | 88 | 1010.4 |
| 20260509032504 | 72 | 101 | 0.0 | 4.0 | 0.00 | 0.00 | 0.00 | 89 | 1010.5 |
| 20260509032009 | 72 | 101 | 0.0 | 5.0 | 0.00 | 0.00 | 0.00 | 89 | 1010.4 |
| 20260509031515 | 71 | 101 | 1.0 | 5.0 | 0.00 | 0.00 | 0.00 | 89 | 1010.4 |
| 20260509031008 | 71 | 68 | 1.0 | 4.0 | 0.00 | 0.00 | 0.00 | 89 | 1010.1 |
| 20260509030508 | 71 | 60 | 1.0 | 4.0 | 0.00 | 0.00 | 0.00 | 89 | 1010.2 |
| 20260509030017 | 71 | 58 | 1.0 | 2.0 | 0.00 | 0.00 | 0.00 | 89 | 1010.1 |
| 20260509025508 | 71 | 58 | 0.0 | 2.0 | 0.00 | 0.00 | 0.00 | 89 | 1010.1 |
| 20260509025003 | 71 | 58 | 0.0 | 2.0 | 0.00 | 0.00 | 0.00 | 89 | 1010.0 |
| 20260509024519 | 71 | 58 | 0.0 | 4.0 | 0.00 | 0.00 | 0.00 | 89 | 1009.9 |
| 20260509024010 | 71 | 58 | 0.0 | 4.0 | 0.00 | 0.00 | 0.00 | 89 | 1009.9 |
| 20260509023505 | 71 | 57 | 0.0 | 2.0 | 0.00 | 0.00 | 0.00 | 88 | 1009.9 |
| 20260509023007 | 71 | 57 | 0.0 | 1.0 | 0.00 | 0.00 | 0.00 | 87 | 1010.0 |
| 20260509022504 | 71 | 57 | 0.0 | 2.0 | 0.00 | 0.00 | 0.00 | 87 | 1010.0 |
| 20260509022007 | 72 | 57 | 0.0 | 2.0 | 0.00 | 0.00 | 0.00 | 87 | 1010.0 |
| 20260509021510 | 72 | 57 | 0.0 | 2.0 | 0.00 | 0.00 | 0.00 | 87 | 1009.9 |
| 20260509021006 | 72 | 57 | 0.0 | 2.0 | 0.00 | 0.00 | 0.00 | 87 | 1009.8 |
| 20260509020504 | 72 | 57 | 0.0 | 2.0 | 0.00 | 0.00 | 0.00 | 86 | 1009.7 |
| 20260509020032 | 72 | 57 | 0.0 | 2.0 | 0.00 | 0.00 | 0.00 | 86 | 1009.6 |
| 20260509015508 | 72 | 57 | 0.0 | 2.0 | 0.00 | 0.00 | 0.00 | 86 | 1009.6 |
| 20260509015008 | 72 | 57 | 0.0 | 3.0 | 0.00 | 0.00 | 0.00 | 85 | 1009.5 |
| 20260509014537 | 73 | 57 | 0.0 | 3.0 | 0.00 | 0.00 | 0.00 | 85 | 1009.4 |
| 20260509014004 | 73 | 56 | 0.0 | 3.0 | 0.00 | 0.00 | 0.00 | 85 | 1009.4 |
| 20260509013508 | 73 | 53 | 0.0 | 3.0 | 0.00 | 0.00 | 0.00 | 85 | 1009.4 |
| 20260509013028 | 73 | 53 | 0.0 | 3.0 | 0.00 | 0.00 | 0.00 | 84 | 1009.4 |
| 20260509012506 | 73 | 53 | 0.0 | 3.0 | 0.00 | 0.00 | 0.00 | 84 | 1009.4 |
| 20260509012009 | 73 | 53 | 0.0 | 3.0 | 0.00 | 0.00 | 0.00 | 83 | 1009.3 |
| 20260509011506 | 73 | 53 | 1.0 | 4.0 | 0.00 | 0.00 | 0.00 | 83 | 1009.3 |
| 20260509011005 | 74 | 58 | 0.0 | 4.0 | 0.00 | 0.00 | 0.00 | 83 | 1009.2 |
| 20260509010506 | 74 | 60 | 1.0 | 4.0 | 0.00 | 0.00 | 0.00 | 83 | 1009.2 |
| 20260509010010 | 74 | 25 | 1.0 | 4.0 | 0.00 | 0.00 | 0.00 | 83 | 1009.3 |
| 20260509005507 | 74 | 24 | 1.0 | 3.0 | 0.00 | 0.00 | 0.00 | 83 | 1009.4 |
| 20260509005007 | 74 | 24 | 0.0 | 5.0 | 0.00 | 0.00 | 0.00 | 83 | 1009.4 |
| 20260509004521 | 74 | 24 | 2.0 | 5.0 | 0.00 | 0.00 | 0.00 | 82 | 1009.4 |
| 20260509004006 | 74 | 25 | 1.0 | 3.0 | 0.00 | 0.00 | 0.00 | 82 | 1009.3 |
| 20260509003514 | 74 | 29 | 0.0 | 4.0 | 0.00 | 0.00 | 0.00 | 82 | 1009.3 |
| 20260509003031 | 74 | 29 | 1.0 | 5.0 | 0.00 | 0.00 | 0.00 | 82 | 1009.3 |
| 20260509002510 | 74 | 29 | 1.0 | 5.0 | 0.00 | 0.00 | 0.00 | 82 | 1009.2 |
| 20260509002009 | 75 | 60 | 0.0 | 4.0 | 0.00 | 0.00 | 0.00 | 82 | 1009.3 |
| 20260509001522 | 75 | 60 | 1.0 | 4.0 | 0.00 | 0.00 | 0.00 | 82 | 1009.3 |
| 20260509001006 | 75 | 66 | 0.0 | 4.0 | 0.00 | 0.00 | 0.00 | 82 | 1009.4 |
| 20260509000509 | 75 | 57 | 0.0 | 5.0 | 0.00 | 0.00 | 0.00 | 81 | 1009.4 |
| 20260509000010 | 75 | 56 | 2.0 | 5.0 | 0.00 | 0.00 | 0.00 | 81 | 1009.4 |
| 20260508235508 | 75 | 22 | 1.0 | 4.0 | 0.00 | 0.00 | 0.00 | 81 | 1009.5 |
| 20260508235006 | 75 | 22 | 0.0 | 4.0 | 0.00 | 0.00 | 0.00 | 81 | 1009.5 |
| 20260508234516 | 75 | 10 | 0.0 | 4.0 | 0.00 | 0.00 | 0.00 | 81 | 1009.5 |
| 20260508234008 | 75 | 11 | 0.0 | 6.0 | 0.00 | 0.00 | 0.00 | 81 | 1009.6 |
| 20260508233509 | 75 | 11 | 1.0 | 6.0 | 0.00 | 0.00 | 0.00 | 81 | 1009.5 |
| 20260508233020 | 75 | 46 | 0.0 | 5.0 | 0.00 | 0.00 | 0.00 | 81 | 1009.4 |
| 20260508232513 | 75 | 37 | 0.0 | 5.0 | 0.00 | 0.00 | 0.00 | 80 | 1009.4 |
| 20260508232010 | 75 | 41 | 2.0 | 5.0 | 0.00 | 0.00 | 0.00 | 80 | 1009.4 |
| 20260508231522 | 75 | 95 | 1.0 | 4.0 | 0.00 | 0.00 | 0.00 | 80 | 1009.3 |
| 20260508231007 | 75 | 46 | 1.0 | 5.0 | 0.00 | 0.00 | 0.00 | 80 | 1009.4 |
| 20260508230510 | 75 | 42 | 1.0 | 9.0 | 0.00 | 0.00 | 0.00 | 80 | 1009.4 |
| 20260508230026 | 75 | 56 | 2.0 | 9.0 | 0.00 | 0.00 | 0.00 | 79 | 1009.4 |
| 20260508225508 | 75 | 78 | 2.0 | 6.0 | 0.00 | 0.00 | 0.00 | 79 | 1009.2 |
| 20260508225013 | 75 | 32 | 1.0 | 5.0 | 0.00 | 0.00 | 0.00 | 80 | 1009.3 |
| 20260508224526 | 75 | 29 | 2.0 | 5.0 | 0.00 | 0.00 | 0.00 | 79 | 1009.5 |
| 20260508224006 | 75 | 45 | 1.0 | 4.0 | 0.00 | 0.00 | 0.00 | 79 | 1009.5 |
| 20260508223507 | 75 | 40 | 0.0 | 3.0 | 0.00 | 0.00 | 0.00 | 79 | 1009.5 |
| 20260508223016 | 76 | 40 | 1.0 | 4.0 | 0.00 | 0.00 | 0.00 | 78 | 1009.5 |
| 20260508222509 | 76 | 45 | 1.0 | 5.0 | 0.00 | 0.00 | 0.00 | 79 | 1009.4 |
| 20260508222012 | 75 | 62 | 1.0 | 5.0 | 0.00 | 0.00 | 0.00 | 78 | 1009.5 |
| 20260508221512 | 76 | 11 | 1.0 | 8.0 | 0.00 | 0.00 | 0.00 | 79 | 1009.4 |
| 20260508221011 | 76 | 14 | 3.0 | 8.0 | 0.00 | 0.00 | 0.00 | 78 | 1009.5 |
| 20260508220509 | 76 | 19 | 2.0 | 7.0 | 0.00 | 0.00 | 0.00 | 78 | 1009.6 |
| 20260508220018 | 76 | 21 | 1.0 | 7.0 | 0.00 | 0.00 | 0.00 | 77 | 1009.6 |
| 20260508215509 | 76 | 41 | 2.0 | 5.0 | 0.00 | 0.00 | 0.00 | 77 | 1009.7 |
| 20260508215011 | 76 | 44 | 1.0 | 5.0 | 0.00 | 0.00 | 0.00 | 77 | 1009.7 |
| 20260508214518 | 76 | 118 | 1.0 | 5.0 | 0.00 | 0.00 | 0.00 | 76 | 1009.7 |
| 20260508214009 | 76 | 91 | 1.0 | 5.0 | 0.00 | 0.00 | 0.00 | 76 | 1009.7 |
| 20260508213510 | 76 | 39 | 1.0 | 8.0 | 0.00 | 0.00 | 0.00 | 77 | 1009.8 |
| 20260508213015 | 76 | 80 | 2.0 | 8.0 | 0.00 | 0.00 | 0.00 | 76 | 1009.9 |
| 20260508212508 | 76 | 34 | 2.0 | 7.0 | 0.00 | 0.00 | 0.00 | 76 | 1009.9 |
| 20260508212011 | 77 | 9 | 3.0 | 7.0 | 0.00 | 0.00 | 0.00 | 75 | 1010.0 |
| 20260508211519 | 78 | 15 | 3.0 | 7.0 | 0.00 | 0.00 | 0.00 | 75 | 1010.0 |
| 20260508211007 | 78 | 13 | 2.0 | 9.0 | 0.00 | 0.00 | 0.00 | 74 | 1010.0 |
| 20260508210503 | 78 | 20 | 2.0 | 9.0 | 0.00 | 0.00 | 0.00 | 76 | 1010.1 |
| 20260508210006 | 77 | 19 | 2.0 | 8.0 | 0.00 | 0.00 | 0.00 | 75 | 1010.2 |
| 20260508205504 | 76 | 15 | 3.0 | 8.0 | 0.00 | 0.00 | 0.00 | 75 | 1010.4 |
| 20260508205006 | 76 | 88 | 1.0 | 5.0 | 0.00 | 0.00 | 0.00 | 74 | 1010.6 |
| 20260508204520 | 77 | 70 | 1.0 | 6.0 | 0.00 | 0.00 | 0.00 | 74 | 1010.6 |
| 20260508204003 | 77 | 29 | 2.0 | 10.0 | 0.00 | 0.00 | 0.00 | 75 | 1010.5 |
| 20260508203507 | 77 | 6 | 1.0 | 10.0 | 0.00 | 0.00 | 0.00 | 74 | 1010.6 |
| 20260508203010 | 78 | 113 | 1.0 | 6.0 | 0.00 | 0.00 | 0.00 | 73 | 1010.6 |
| 20260508202503 | 77 | 17 | 2.0 | 7.0 | 0.00 | 0.00 | 0.00 | 75 | 1010.8 |
| 20260508202009 | 76 | 23 | 2.0 | 7.0 | 0.00 | 0.00 | 0.00 | 76 | 1010.7 |